Time,TemperatureF,DewpointF,PressureIn,WindDirection,WindDirectionDegrees,WindSpeedMPH,WindSpeedGustMPH,Humidity,HourlyPrecipIn,Conditions,Clouds,dailyrainin,SolarRadiationWatts/m^2,SoftwareType,DateUTC
2013-07-26 15:30:00,86.1,62.0,29.79,SSW,209,6.0,-999.0,33,-99.99,,,0.02,1021.0,cwc,2013-07-26 21:30:00,
2013-07-26 15:35:00,85.9,61.4,29.78,SSW,203,0.0,-999.0,32,-99.99,,,0.02,253.0,cwc,2013-07-26 21:35:00,
2013-07-26 15:45:00,84.6,59.0,29.78,NNE,30,7.0,-999.0,29,-99.99,,,0.02,118.0,cwc,2013-07-26 21:45:00,
2013-07-26 15:50:00,83.4,57.5,29.79,North,350,3.0,-999.0,28,-99.99,,,0.02,107.0,cwc,2013-07-26 21:50:00,
2013-07-26 15:55:00,82.4,56.5,29.78,NNE,24,6.0,-999.0,28,-99.99,,,0.02,204.0,cwc,2013-07-26 21:55:00,
2013-07-26 16:00:00,81.4,56.2,29.78,East,91,9.0,-999.0,30,-99.99,,,0.02,367.0,cwc,2013-07-26 22:00:00,
2013-07-26 16:05:00,80.6,56.1,29.77,NNE,18,6.0,-999.0,32,-99.99,,,0.02,722.0,cwc,2013-07-26 22:05:00,
2013-07-26 16:10:00,80.9,56.1,29.77,NNE,17,6.0,-999.0,31,-99.99,,,0.02,629.0,cwc,2013-07-26 22:10:00,
2013-07-26 16:15:00,81.2,56.0,29.77,North,360,0.0,-999.0,30,-99.99,,,0.02,292.0,cwc,2013-07-26 22:15:00,
2013-07-26 16:20:00,81.6,56.0,29.76,SSW,205,6.0,-999.0,29,-99.99,,,0.02,207.0,cwc,2013-07-26 22:20:00,
2013-07-26 16:25:00,81.7,56.1,29.77,SSW,206,1.0,-999.0,29,-99.99,,,0.02,153.0,cwc,2013-07-26 22:25:00,
2013-07-26 16:35:00,81.4,57.6,29.80,NW,315,12.0,-999.0,34,-99.99,,,0.02,113.0,cwc,2013-07-26 22:35:00,
2013-07-26 16:40:00,79.5,56.1,29.81,East,92,3.0,-999.0,35,-99.99,,,0.02,83.0,cwc,2013-07-26 22:40:00,
2013-07-26 16:45:00,78.4,55.0,29.81,North,360,10.0,-999.0,35,-99.99,,,0.02,63.0,cwc,2013-07-26 22:45:00,
2013-07-26 16:55:00,77.2,53.8,29.81,North,360,6.0,-999.0,35,-99.99,,,0.02,62.0,cwc,2013-07-26 22:55:00,
2013-07-26 17:00:00,76.6,54.3,29.82,East,84,2.0,-999.0,38,-99.99,,,0.02,47.0,cwc,2013-07-26 23:00:00,
2013-07-26 17:10:00,75.4,53.1,29.83,NW,320,12.0,-999.0,38,-99.99,,,0.02,21.0,cwc,2013-07-26 23:10:00,
2013-07-26 17:15:00,74.8,52.8,29.83,NNW,336,14.0,-999.0,39,-99.99,,,0.02,14.0,cwc,2013-07-26 23:15:00,
2013-07-26 17:20:00,74.1,52.9,29.83,NE,35,6.0,-999.0,41,-99.99,,,0.02,11.0,cwc,2013-07-26 23:20:00,
2013-07-26 17:25:00,73.5,52.6,29.83,NNW,344,3.0,-999.0,42,-99.99,,,0.02,9.0,cwc,2013-07-26 23:25:00,
2013-07-26 17:30:00,73.3,52.4,29.84,South,169,2.0,-999.0,42,-99.99,,,0.02,9.0,cwc,2013-07-26 23:30:00,
2013-07-26 17:40:00,73.1,52.6,29.84,South,179,0.0,-999.0,43,-99.99,,,0.02,7.0,cwc,2013-07-26 23:40:00,
2013-07-26 17:50:00,72.9,52.7,29.83,NE,50,0.0,-999.0,44,-99.99,,,0.02,7.0,cwc,2013-07-26 23:50:00,
2013-07-26 17:55:00,72.6,53.9,29.83,NE,50,0.0,-999.0,48,-99.99,,,0.02,7.0,cwc,2013-07-26 23:55:00,
2013-07-26 18:00:00,72.2,53.1,29.83,NE,50,0.0,-999.0,47,-99.99,,,0.02,9.0,cwc,2013-07-27 00:00:00,
2013-07-26 18:05:00,71.9,52.8,29.82,NE,49,0.0,-999.0,47,-99.99,,,0.02,11.0,cwc,2013-07-27 00:05:00,
2013-07-26 18:10:00,71.8,52.0,29.82,NE,49,1.0,-999.0,45,-99.99,,,0.02,14.0,cwc,2013-07-27 00:10:00,
2013-07-26 18:15:00,71.9,53.2,29.82,SSE,165,6.0,-999.0,48,-99.99,,,0.02,16.0,cwc,2013-07-27 00:15:00,
2013-07-26 18:25:00,71.8,53.1,29.84,SE,131,3.0,-999.0,48,-99.99,,,0.02,21.0,cwc,2013-07-27 00:25:00,
2013-07-26 18:30:00,71.6,54.0,29.85,SSW,194,14.0,-999.0,51,-99.99,,,0.02,26.0,cwc,2013-07-27 00:30:00,
2013-07-26 18:35:00,70.6,53.7,29.85,SSW,210,11.0,-999.0,53,-99.99,,,0.02,33.0,cwc,2013-07-27 00:35:00,
2013-07-26 18:40:00,69.8,54.0,29.85,SSW,197,14.0,-999.0,56,-99.99,,,0.02,42.0,cwc,2013-07-27 00:40:00,
2013-07-26 18:50:00,69.0,53.2,29.85,SSW,192,7.0,-999.0,56,-99.99,,,0.02,60.0,cwc,2013-07-27 00:50:00,
2013-07-26 18:55:00,69.0,52.8,29.85,SSW,205,11.0,-999.0,55,-99.99,,,0.02,65.0,cwc,2013-07-27 00:55:00,
2013-07-26 19:00:00,69.2,53.4,29.85,South,182,9.0,-999.0,56,-99.99,,,0.02,58.0,cwc,2013-07-27 01:00:00,
2013-07-26 19:05:00,68.8,54.0,29.85,WSW,252,6.0,-999.0,59,-99.99,,,0.02,49.0,cwc,2013-07-27 01:05:00,
2013-07-26 19:10:00,68.2,54.2,29.85,SSW,203,5.0,-999.0,61,-99.99,,,0.02,46.0,cwc,2013-07-27 01:10:00,
2013-07-26 19:15:00,67.6,54.3,29.85,SE,138,7.0,-999.0,63,-99.99,,,0.02,42.0,cwc,2013-07-27 01:15:00,
2013-07-26 19:25:00,66.7,53.4,29.86,SSE,156,4.0,-999.0,63,-99.99,,,0.02,30.0,cwc,2013-07-27 01:25:00,
2013-07-26 19:30:00,66.5,53.2,29.86,SSE,148,2.0,-999.0,63,-99.99,,,0.02,28.0,cwc,2013-07-27 01:30:00,
2013-07-26 19:40:00,66.4,53.1,29.87,SSE,168,6.0,-999.0,63,-99.99,,,0.02,19.0,cwc,2013-07-27 01:40:00,
2013-07-26 19:45:00,66.4,52.7,29.88,South,177,3.0,-999.0,62,-99.99,,,0.02,18.0,cwc,2013-07-27 01:45:00,
2013-07-26 19:50:00,66.3,53.0,29.88,South,175,3.0,-999.0,63,-99.99,,,0.02,14.0,cwc,2013-07-27 01:50:00,
2013-07-26 19:55:00,66.3,53.3,29.88,South,176,7.0,-999.0,64,-99.99,,,0.02,11.0,cwc,2013-07-27 01:55:00,
2013-07-26 20:05:00,66.1,53.5,29.88,South,180,7.0,-999.0,65,-99.99,,,0.02,7.0,cwc,2013-07-27 02:05:00,
2013-07-26 20:10:00,66.0,53.4,29.88,South,180,3.0,-999.0,65,-99.99,,,0.02,0.0,cwc,2013-07-27 02:10:00,
2013-07-26 20:20:00,65.9,52.9,29.89,South,180,2.0,-999.0,64,-99.99,,,0.02,0.0,cwc,2013-07-27 02:20:00,
2013-07-26 20:25:00,65.8,52.8,29.89,South,180,4.0,-999.0,64,-99.99,,,0.02,0.0,cwc,2013-07-27 02:25:00,
2013-07-26 20:30:00,65.8,53.2,29.89,South,180,6.0,-999.0,65,-99.99,,,0.02,0.0,cwc,2013-07-27 02:30:00,
2013-07-26 20:35:00,65.7,53.1,29.89,South,185,3.0,-999.0,65,-99.99,,,0.02,0.0,cwc,2013-07-27 02:35:00,
2013-07-26 20:40:00,65.7,53.1,29.89,South,184,0.0,-999.0,65,-99.99,,,0.02,0.0,cwc,2013-07-27 02:40:00,
2013-07-26 20:45:00,65.7,53.1,29.90,South,185,0.0,-999.0,65,-99.99,,,0.02,0.0,cwc,2013-07-27 02:45:00,
2013-07-26 20:50:00,65.7,53.1,29.90,South,185,0.0,-999.0,65,-99.99,,,0.02,0.0,cwc,2013-07-27 02:50:00,
2013-07-26 20:55:00,65.7,53.1,29.91,South,190,4.0,-999.0,65,-99.99,,,0.02,0.0,cwc,2013-07-27 02:55:00,
2013-07-26 21:00:00,65.8,52.8,29.91,SSW,198,6.0,-999.0,64,-99.99,,,0.02,0.0,cwc,2013-07-27 03:00:00,
2013-07-26 21:10:00,65.8,52.8,29.92,SSW,198,4.0,-999.0,64,-99.99,,,0.02,0.0,cwc,2013-07-27 03:10:00,
2013-07-26 21:15:00,65.7,53.1,29.92,SSW,198,4.0,-999.0,65,-99.99,,,0.02,0.0,cwc,2013-07-27 03:15:00,
2013-07-26 21:20:00,65.6,53.4,29.92,SSW,198,2.0,-999.0,66,-99.99,,,0.02,0.0,cwc,2013-07-27 03:20:00,
2013-07-26 21:25:00,65.4,52.8,29.93,SSW,198,2.0,-999.0,65,-99.99,,,0.02,0.0,cwc,2013-07-27 03:25:00,
2013-07-26 21:30:00,65.3,52.7,29.93,SSW,199,0.0,-999.0,65,-99.99,,,0.02,0.0,cwc,2013-07-27 03:30:00,
2013-07-26 21:35:00,65.2,52.6,29.93,SSW,199,0.0,-999.0,65,-99.99,,,0.02,0.0,cwc,2013-07-27 03:35:00,
2013-07-26 21:45:00,65.0,52.4,29.93,SSW,199,0.0,-999.0,65,-99.99,,,0.02,0.0,cwc,2013-07-27 03:45:00,
2013-07-26 21:50:00,64.9,52.3,29.94,SSW,199,0.0,-999.0,65,-99.99,,,0.02,0.0,cwc,2013-07-27 03:50:00,
2013-07-26 22:00:00,64.8,53.3,29.94,SSW,196,3.0,-999.0,68,-99.99,,,0.02,0.0,cwc,2013-07-27 04:00:00,
2013-07-26 22:05:00,64.8,53.3,29.95,SSW,196,6.0,-999.0,68,-99.99,,,0.02,0.0,cwc,2013-07-27 04:05:00,
2013-07-26 22:10:00,64.8,53.6,29.95,SSW,196,4.0,-999.0,69,-99.99,,,0.02,0.0,cwc,2013-07-27 04:10:00,
2013-07-26 22:15:00,64.7,53.9,29.95,SW,227,9.0,-999.0,70,-99.99,,,0.02,0.0,cwc,2013-07-27 04:15:00,
2013-07-26 22:20:00,64.5,53.7,29.95,SW,219,4.0,-999.0,70,-99.99,,,0.02,0.0,cwc,2013-07-27 04:20:00,
2013-07-26 22:25:00,64.3,53.9,29.95,SW,219,4.0,-999.0,71,-99.99,,,0.02,0.0,cwc,2013-07-27 04:25:00,
2013-07-26 22:30:00,64.1,54.0,29.95,SW,232,3.0,-999.0,72,-99.99,,,0.02,0.0,cwc,2013-07-27 04:30:00,
2013-07-26 22:35:00,63.9,54.2,29.96,South,191,7.0,-999.0,73,-99.99,,,0.02,0.0,cwc,2013-07-27 04:35:00,
2013-07-26 22:40:00,63.7,54.3,29.96,SSW,194,4.0,-999.0,74,-99.99,,,0.02,0.0,cwc,2013-07-27 04:40:00,
2013-07-26 22:50:00,63.6,54.6,29.97,SSW,194,6.0,-999.0,75,-99.99,,,0.02,0.0,cwc,2013-07-27 04:50:00,
2013-07-26 23:00:00,63.4,54.8,29.97,SSW,196,2.0,-999.0,76,-99.99,,,0.02,0.0,cwc,2013-07-27 05:00:00,
2013-07-26 23:10:00,63.2,54.6,29.97,South,187,0.0,-999.0,76,-99.99,,,0.02,0.0,cwc,2013-07-27 05:10:00,
2013-07-26 23:15:00,63.1,54.5,29.97,South,188,0.0,-999.0,76,-99.99,,,0.02,0.0,cwc,2013-07-27 05:15:00,
2013-07-26 23:20:00,63.0,54.7,29.97,South,188,0.0,-999.0,77,-99.99,,,0.02,0.0,cwc,2013-07-27 05:20:00,
2013-07-26 23:25:00,62.9,54.6,29.97,South,188,3.0,-999.0,77,-99.99,,,0.02,0.0,cwc,2013-07-27 05:25:00,
2013-07-26 23:30:00,62.9,54.6,29.97,South,187,0.0,-999.0,77,-99.99,,,0.02,0.0,cwc,2013-07-27 05:30:00,
2013-07-26 23:40:00,62.7,54.4,29.97,South,187,1.0,-999.0,77,-99.99,,,0.02,0.0,cwc,2013-07-27 05:40:00,
2013-07-26 23:45:00,62.5,54.6,29.97,South,191,6.0,-999.0,78,-99.99,,,0.02,0.0,cwc,2013-07-27 05:45:00,
2013-07-26 23:50:00,62.4,54.5,29.97,SSW,202,2.0,-999.0,78,-99.99,,,0.02,0.0,cwc,2013-07-27 05:50:00,
2013-07-26 23:55:00,62.2,54.3,29.97,SSW,202,4.0,-999.0,78,-99.99,,,0.02,0.0,cwc,2013-07-27 05:55:00,